[[{"header":{"parameterUnit":"m.s-1","parameterCategory":1,"la1":30.2992,"la2":30.254,"lo1":-89.0895,"lo2":-89.0443,"dy":0.0025,"dx":0.0025,"nx":19,"ny":19,"refTime":"2026-04-16T09:00:00:Z","depth":0,"parameterNumber":2,"parameterNumberName":"U-component_of_WINDS"},"data":[0,0,0,-1.0173,-1.0171,-1.0032,-1.0031,-0.9873,-0.9872,0,0,0,0,0,0,0,0,0,0,0,-1.0226,-1.0226,-1.0173,-1.017,-1.0032,-1.0031,-0.9873,-0.9872,0,0,0,0,0,0,0,0,0,0,0,-1.0227,-1.0226,-1.0225,-1.017,-1.0032,-1.0031,-0.9874,-0.9971,0,0,0,0,0,0,0,0,0,0,-1.0103,-1.0163,-1.0226,-1.0225,-1.0169,-1.0032,-1.0031,-0.9976,-0.9965,-0.9945,0,-0.993,0,-0.9899,-0.9863,-0.9862,0,0,0,-1.0161,-1.0172,-1.0124,-1.0225,-1.0168,-1.0032,-1.0092,-0.997,-0.9958,-0.9931,-0.9927,-0.9921,-0.9896,-0.9862,-0.9861,-0.9777,-0.9777,0,0,-1.0169,-1.0207,-1.0133,-1.0117,-1.014,-1.0096,-1.0087,-0.9962,-0.9961,-0.9927,-0.9917,-0.9894,-0.9861,-0.986,-0.9777,-0.9777,0,0,0,-1.0197,-1.0213,-1.0168,-1.0124,-1.0098,-1.0092,-1.0082,-0.9966,-0.9948,-0.9915,-0.9892,-0.986,-0.9858,-0.9777,-0.9777,-0.9818,0,0,0,-1.0201,-1.023,-1.0172,-1.0194,-1.0101,-1.003,-1.009,-0.9957,-0.9941,-0.9893,-0.986,-0.9857,-0.9777,-0.9777,-0.9817,-0.9831,0,0,0,-1.0231,-1.0233,-1.0217,-1.0197,-1.0138,-1.0031,-1.0006,-0.9953,-0.9928,-0.9862,-0.9857,-0.9777,-0.9777,-0.9816,-0.9829,-0.9821,0,0,0,-1.0274,-1.0254,-1.0219,-1.0187,-1.014,-1.0059,-1.0006,-0.9943,-0.9892,-0.9859,-0.9777,-0.9777,-0.9815,-0.9827,-0.982,-0.9822,-0.9827,0,0,-1.0271,-1.0255,-1.0234,-1.0198,-1.0133,-1.0076,-1.0017,-0.9932,-0.989,-0.9817,-0.9814,-0.9817,-0.9828,-0.9821,-0.9838,-0.9842,0,0,0,-1.0246,-1.0231,-1.0205,-1.0159,-1.0096,-1.0043,-0.9963,-0.9932,-0.9869,-0.9861,-0.9811,-0.9817,-0.9811,-0.981,-0.9813,-0.9806,-0.9778,-0.9778,-0.9778,-1.0295,-1.0244,-1.0206,-1.0139,-1.0095,-1.0015,-0.9975,-0.992,-0.9878,-0.9868,-0.9846,-0.9863,-0.9863,-0.9865,-0.9859,-0.9843,-0.9843,-0.9843,-0.9843,-1.0286,-1.0257,-1.0206,-1.0151,-1.0097,-1.005,-0.9974,-0.9947,-0.9895,-0.9874,-0.9866,-0.9849,-0.9871,-0.9863,-0.9846,-0.9845,-0.9845,-0.9845,-0.9845,-1.0313,-1.029,-1.0254,-1.0185,-1.0137,-1.007,-1.0024,-0.9976,-0.993,-0.9922,-0.9895,-0.9894,-0.9888,-0.9913,-0.9913,-0.9913,-0.9913,-0.9913,-0.9913,-1.0355,-1.0313,-1.028,-1.0214,-1.018,-1.0129,-1.0051,-1.0015,-0.9964,-0.9933,-0.9932,-0.9894,-0.9883,-0.9882,-0.9914,-0.9914,-0.9913,-0.9913,-0.9913,-1.0363,-1.0355,-1.0304,-1.0271,-1.019,-1.0147,-1.0087,-1.0021,-0.9985,-0.9964,-0.9928,-0.9928,-0.9908,-0.9905,-0.9903,-0.9939,-0.9939,-0.9939,-0.9939,-1.0386,-1.0373,-1.0312,-1.0261,-1.0206,-1.0149,-1.0095,-1.0035,-0.9972,-0.9947,-0.9935,-0.9929,-0.9928,-0.9909,-0.9906,-0.9903,-0.9938,-0.9938,-0.9938,-1.039,-1.0369,-1.0332,-1.0271,-1.0205,-1.015,-1.0099,-1.0043,-0.9969,-0.9937,-0.9926,-0.9927,-0.9916,-0.9916,-0.9882,-0.9878,-0.9873,0,0]},{"header":{"parameterUnit":"m.s-1","parameterCategory":1,"la1":30.2992,"la2":30.254,"lo1":-89.0895,"lo2":-89.0443,"dy":0.0025,"dx":0.0025,"nx":19,"ny":19,"refTime":"2026-04-16T09:00:00:Z","depth":0,"parameterNumber":3,"parameterNumberName":"V-component_of_WINDS"},"data":[0,0,0,3.8934,3.8932,3.8859,3.8859,3.8763,3.8762,0,0,0,0,0,0,0,0,0,0,0,3.8956,3.8956,3.8934,3.8932,3.886,3.8859,3.8763,3.8762,0,0,0,0,0,0,0,0,0,0,0,3.8956,3.8956,3.8955,3.8932,3.886,3.8859,3.8763,3.8818,0,0,0,0,0,0,0,0,0,0,3.8889,3.8911,3.8956,3.8955,3.8932,3.886,3.8859,3.8821,3.8815,3.8795,0,3.878,0,3.877,3.8755,3.8755,0,0,0,3.8931,3.8916,3.8897,3.8955,3.8931,3.886,3.8892,3.8818,3.8811,3.8787,3.8779,3.8775,3.8768,3.8755,3.8754,3.8653,3.8652,0,0,3.8935,3.8942,3.8902,3.8892,3.8907,3.8894,3.889,3.8814,3.8804,3.8779,3.8773,3.8767,3.8754,3.8753,3.8653,3.8653,0,0,0,3.8947,3.8945,3.8927,3.8896,3.8884,3.8892,3.8887,3.8807,3.8801,3.8772,3.8766,3.8754,3.8752,3.8654,3.8653,3.8642,0,0,0,3.895,3.8953,3.8929,3.8933,3.8885,3.8845,3.8882,3.8806,3.8797,3.8766,3.8754,3.8752,3.8654,3.8653,3.8643,3.8635,0,0,0,3.896,3.8954,3.8944,3.8934,3.8903,3.8846,3.8835,3.8804,3.8793,3.8755,3.8751,3.8654,3.8653,3.8645,3.8637,3.8611,0,0,0,3.8973,3.8933,3.8944,3.8896,3.8904,3.8841,3.8836,3.8788,3.8753,3.8753,3.8654,3.8653,3.8645,3.8638,3.8613,3.8591,3.8584,0,0,3.8926,3.8927,3.8899,3.8907,3.8845,3.8852,3.8786,3.8746,3.8733,3.868,3.8677,3.8643,3.8637,3.8612,3.8537,3.8531,0,0,0,3.8886,3.8866,3.8848,3.8818,3.8788,3.8762,3.8731,3.8716,3.8671,3.8708,3.8627,3.8623,3.8608,3.8597,3.8592,3.8578,3.8649,3.8649,3.8649,3.8829,3.8819,3.8771,3.8753,3.8723,3.8694,3.8668,3.8642,3.8637,3.8619,3.8602,3.8559,3.8547,3.8543,3.8529,3.859,3.859,3.859,3.859,3.876,3.8729,3.8728,3.8681,3.8669,3.8628,3.8598,3.8597,3.8556,3.857,3.8555,3.8571,3.8537,3.8524,3.8589,3.8589,3.859,3.859,3.859,3.8721,3.8705,3.869,3.8647,3.8614,3.8595,3.8558,3.8548,3.8537,3.8524,3.8506,3.8506,3.8504,3.8516,3.8516,3.8516,3.8516,3.8516,3.8515,3.8687,3.8671,3.8642,3.8609,3.859,3.8562,3.8533,3.8512,3.8487,3.8482,3.8482,3.8479,3.8536,3.855,3.8513,3.8513,3.8514,3.8514,3.8514,3.8619,3.8634,3.8589,3.857,3.8531,3.85,3.8489,3.8448,3.8429,3.841,3.8411,3.8456,3.8454,3.8458,3.847,3.8414,3.8414,3.8414,3.8414,3.8586,3.8586,3.8539,3.8509,3.8478,3.8465,3.8413,3.839,3.8368,3.8356,3.8363,3.8378,3.8382,3.8379,3.8384,3.8395,3.8321,3.8321,3.8321,3.8544,3.8541,3.85,3.8483,3.8453,3.8426,3.8377,3.8341,3.8319,3.8317,3.8346,3.835,3.8374,3.8383,3.838,3.839,3.8409,0,0]}]]